Location: Unspecified
(0.0000°N, 0.0000°E)
Time: 20:41:54
(UTC+00:00)

Envisat - Pass Details

Date: 31 May 2023
Orbit: 763 x 765 km, 98.2° (Epoch: 05 June)

Event Time Altitude Azimuth Distance (km) Brightness Sun altitude
Rises 02:52:49 0° 29° (NNE) 3,212 6.9 -42.1°
Reaches altitude 10° 02:55:19 10° 39° (NE) 2,289 6.0 -41.5°
Enters shadow 02:56:27 16° 46° (NE) 1,909 5.6 -41.3°
